This is the latest recevied weather packets stored in our database for station/object HB9HFD-13. If no packets are shown the sender has not sent any weather packets the latest 10 day(s).
| Time | Temp. | Humidity | Pressure | Rain* | Wind** | Luminosity | Snow |
|---|---|---|---|---|---|---|---|
| 1787757307 | 28.33° C | 53% | 1012.1 hPa | 0 mm | - | - | - |
| 1787757007 | 28.33° C | 52% | 1012.1 hPa | 0 mm | - | - | - |
| 1787756707 | 28.89° C | 52% | 1012.3 hPa | 0 mm | - | - | - |
| 1787756406 | 28.89° C | 50% | 1012.3 hPa | 0 mm | - | - | - |
| 1787756106 | 28.33° C | 50% | 1012.2 hPa | 0 mm | - | - | - |
| 1787755806 | 28.89° C | 51% | 1012.1 hPa | 0 mm | - | - | - |
| 1787755506 | 28.33° C | 53% | 1012.3 hPa | 0 mm | - | - | - |
| 1787755205 | 27.78° C | 54% | 1012.3 hPa | 0 mm | - | - | - |
| 1787754905 | 27.22° C | 58% | 1012.3 hPa | 0 mm | - | - | - |
| 1787754605 | 26.67° C | 57% | 1012.3 hPa | 0 mm | - | - | - |
| 1787754304 | 26.67° C | 58% | 1012.2 hPa | 0 mm | - | - | - |
| 1787754004 | 26.11° C | 58% | 1012.2 hPa | 0 mm | - | - | - |
| 1787753704 | 26.11° C | 60% | 1012.2 hPa | 0 mm | - | - | - |
| 1787753404 | 26.11° C | 62% | 1012.2 hPa | 0 mm | - | - | - |
| 1787753103 | 26.11° C | 61% | 1012.4 hPa | 0 mm | - | - | - |
| 1787752803 | 25.56° C | 60% | 1012.6 hPa | 0 mm | - | - | - |
| 1787752503 | 25.56° C | 59% | 1012.7 hPa | 0 mm | - | - | - |
| 1787752203 | 26.11° C | 60% | 1012.8 hPa | 0 mm | - | - | - |
| 1787751902 | 26.11° C | 57% | 1012.8 hPa | 0 mm | - | - | - |
| 1787751602 | 26.67° C | 60% | 1012.6 hPa | 0 mm | - | - | - |
| 1787751302 | 26.67° C | 61% | 1012.6 hPa | 0 mm | - | - | - |
| 1787751001 | 26.67° C | 59% | 1012.7 hPa | 0 mm | - | - | - |
| 1787750701 | 26.67° C | 59% | 1012.8 hPa | 0 mm | - | - | - |
| 1787750401 | 27.22° C | 57% | 1013 hPa | 0 mm | - | - | - |
| 1787750101 | 27.22° C | 56% | 1013 hPa | 0 mm | - | - | - |
* Rain latest hour (hover to see other rain measurements)
** Current wind speed in m/s (hover to see current wind gust speed)